Tracking 19575 objects as of 19-Feb-2019
HD Live streaming from Space Station
objects crossing your sky now

INTELSAT 4-F4

Track INTELSAT 4-F4 now!
INTELSAT 4-F4 is classified as:


NORAD ID: 5775
Int'l Code: 1972-003A
Perigee: 35,894.7 km
Apogee: 35,945.6 km
Inclination: 12.6 °
Period: 1,442.6 minutes
Semi major axis: 42291 km
RCS: 2 m2 (large)
Launch date: January 23, 1972
Source: International Telecommunications Satellite Organization (ITSO)
Launch site: AIR FORCE EASTERN TEST RANGE (AFETR)
aabbcc
Your satellite tracking list
Your tracking list is empty




NASA's NSSDC Master Catalog

Two Line Element Set (TLE):
1  5775U 72003A   19049.74424387 -.00000153 +00000-0 +00000-0 0  9998
2  5775 012.5531 321.9207 0006019 019.4737 165.4042 00.99822580110685
Source of the keplerian elements: AFSPC